This demonstration page uses our WeatherBlox Daily Observations layout. Learn more.

Left ArrowRight Arrow

40.92501, -98.34201

Hourly Observations for June 11, 2020

Temp ( °F °C ) Dew Point ( °F °C ) Humidity (%) Winds ( mph kmh ) Pressure ( in mb ) Visibility ( mi km ) Precip ( " mm )
12:53 am 00:53 Clear 59 15 48 8.9 67 67 SSW 5 7 30.13 1020 10 16 0.00 0.00
1:53 am 01:53 Clear 59 15 46 7.8 62 62 SSW 8 13 30.14 1021 10 16 0.00 0.00
2:53 am 02:53 Clear 59 15 45 7.2 60 60 SSW 6 9 30.14 1021 10 16 0.00 0.00
3:53 am 03:53 Clear 60 15.6 44 6.7 56 56 SSW 5 7 30.14 1021 10 16 0.00 0.00
4:53 am 04:53 Clear 57 13.9 45 7.2 64 64 S 5 7 30.16 1021 10 16 0.00 0.00
5:53 am 05:53 Clear 55 12.8 45 7.2 69 69 Calm 30.17 1022 10 16 0.00 0.00
6:53 am 06:53 Sunny 56 13.3 49 9.4 77 77 Calm 30.19 1022 10 16 0.00 0.00
7:53 am 07:53 Sunny 62 16.7 48 8.9 60 60 Calm 30.20 1023 10 16 0.00 0.00
8:53 am 08:53 Sunny 68 20 48 8.9 49 49 W 5 7 30.21 1023 10 16 0.00 0.00
9:53 am 09:53 Mostly Sunny 73 22.8 50 10 44 44 VRB 3 6 30.20 1023 10 16 0.00 0.00
10:53 am 10:53 Sunny 76 24.4 51 10.6 42 42 Calm 30.19 1022 10 16 0.00 0.00
11:53 am 11:53 Sunny 81 27.2 50 10 34 34 Calm 30.18 1022 10 16 0.00 0.00
12:53 pm 12:53 Sunny 84 28.9 49 9.4 30 30 VRB 3 6 30.18 1022 10 16 0.00 0.00
1:53 pm 13:53 Sunny 87 30.6 47 8.3 25 25 NW 9 15 30.17 1022 10 16 0.00 0.00
2:53 pm 14:53 Sunny 86 30 48 8.9 27 27 Calm 30.16 1022 10 16 0.00 0.00
3:53 pm 15:53 Sunny 87 30.6 47 8.3 25 25 VRB 3 6 30.16 1021 10 16 0.00 0.00
4:53 pm 16:53 Sunny 88 31.1 45 7.2 22 22 VRB 3 6 30.16 1021 10 16 0.00 0.00
5:53 pm 17:53 Sunny 88 31.1 48 8.9 25 25 NNE 5 7 30.16 1022 10 16 0.00 0.00
6:53 pm 18:53 Sunny 88 31.1 47 8.3 24 24 Calm 30.17 1022 10 16 0.00 0.00
7:53 pm 19:53 Sunny 85 29.4 48 8.9 28 28 ENE 8 13 30.17 1022 10 16 0.00 0.00
8:53 pm 20:53 Sunny 78 25.6 56 13.3 47 47 ENE 6 9 30.19 1022 10 16 0.00 0.00
9:53 pm 21:53 Clear 72 22.2 55 12.8 55 55 ENE 6 9 30.20 1023 10 16 0.00 0.00
10:53 pm 22:53 Clear 70 21.1 55 12.8 59 59 ENE 6 9 30.24 1024 10 16 0.00 0.00
11:53 pm 23:53 Clear 67 19.4 56 13.3 68 68 E 5 7 30.25 1024 10 16 0.00 0.00

Powered by AerisWeather